Location: Pace/Milton
(30.6162°N, 87.1503°W)
Time: 11:50:58
(UTC-06:00)

N. Korean satellite - Pass Details

Date: 03 December 2021
Orbit: 447 x 491 km, 97.3° (Epoch: 21 January)

Event Time Altitude Azimuth Distance (km) Brightness Sun altitude
Rises 04:05:40 0° 35° (NE) 2,448 10.4 -30.4°
Reaches altitude 10° 04:08:29 10° 62° (ENE) 1,571 9.7 -29.8°
Maximum altitude 04:10:19 14° 95° (E) 1,343 9.6 -29.4°
Drops below altitude 10° 04:12:10 10° 129° (SE) 1,567 9.9 -29.0°
Sets 04:14:57 0° 155° (SSE) 2,436 10.6 -28.4°
